Location: Munkebjergskolens Observatorium
(55.3864°N, 10.3987°E)
Time: 23:15:46
(UTC+01:00)

Envisat - Pass Details

Date: 29 November 2022
Orbit: 763 x 765 km, 98.2° (Epoch: 01 February)

Event Time Altitude Azimuth Distance (km) Brightness Sun altitude
Rises 17:30:52 0° 231° (SW) 3,227 7.7 -12.7°
Reaches altitude 10° 17:36:15 10° 279° (W) 2,311 6.5 -13.4°
Maximum altitude 17:36:25 10° 281° (W) 2,310 6.5 -13.4°
Drops below altitude 10° 17:36:35 10° 282° (WNW) 2,311 6.4 -13.5°
Sets 17:42:01 0° 330° (NNW) 3,247 6.4 -14.2°
